Weather History for Havre, MT

Change the Weather History Date:

Friday, March 8, 2013

  Actual Average Record
Temperature  
Mean Temperature 22 °F 29 °F  
Max Temperature 31 °F 41 °F 67 °F (1885)
Min Temperature 12 °F 18 °F -30 °F (1951)
Degree Days  
Heating Degree Days 43 36  
Month to date heating degree days 295 299  
Since 1 July heating degree days 6111 6419  
Cooling Degree Days 0 0  
Month to date cooling degree days 0 0  
Year to date cooling degree days 0 0  
Moisture  
Dew Point 14 °F    
Average Humidity 81    
Maximum Humidity 92    
Minimum Humidity 69    
Precipitation  
Precipitation 0.00 in 0.01 in 0.20 in (1975)
Month to date precipitation 0.16 0.10  
Year to date precipitation 1.68 0.71  
Snow  
Snow 0.00 in 0.20 in 2.90 in (1949)
Month to date snowfall 1.5 1.6  
Since 1 July snowfall 45.7 29.5  
Snow Depth 1.00 in    
Sea Level Pressure  
Sea Level Pressure 30.09 in    
Wind  
Wind Speed 4 mph (ENE)    
Max Wind Speed 10 mph    
Max Gust Speed 16 mph    
Visibility 8 miles    
Events      
T = Trace of Precipitation, MM = Missing Value Source: NWS Daily Summary

Daily Weather History Graph

Daily Weather History Graph

Search for Another Location

Airport:

Trip Planner

Search our weather history database for the weather conditions in past years. The results will help you decide how hot, cold, wet, or windy it might be!

Date:

Astronomy

Mar. 08, 2013 Rise Set
Actual Time 6:45 AM MST 6:14 PM MST
Civil Twilight 6:14 AM MST 6:45 PM MST
Nautical Twilight 5:38 AM MST 7:21 PM MST
Astronomical Twilight 5:01 AM MST 7:58 PM MST
Moon 4:45 AM MST (3/8) 3:01 PM MST (3/8)
Length of Visible Light 12h 30m
Length of Day
11h 28m
Waning Crescent, 11% of the Moon is Illuminated
Mar 8
Waning Crescent
Mar 11
New
Mar 19
First Quarter
Mar 27
Full
Apr 2
Last Quarter

Hourly Weather History & Observations

Time (MST) Temp. Windchill Dew Point Humidity Pressure Visibility Wind Dir Wind Speed Gust Speed Precip Events Conditions
12:53 AM 14.0 °F 3.9 °F 10.0 °F 84% 30.21 in 10.0 mi NE 6.9 mph - N/A   Clear
1:53 AM 12.9 °F 1.6 °F 9.0 °F 84% 30.20 in 10.0 mi ENE 8.1 mph - N/A   Clear
2:53 AM 12.9 °F 3.8 °F 10.0 °F 88% 30.18 in 9.0 mi ENE 5.8 mph - N/A   Clear
3:10 AM 12.2 °F 4.3 °F 10.4 °F 92% 30.07 in 9.0 mi ENE 4.6 mph - N/A   Scattered Clouds
3:19 AM 14.0 °F 2.9 °F 10.4 °F 86% 30.06 in 9.0 mi ENE 8.1 mph - N/A   Mostly Cloudy
3:41 AM 15.8 °F 4.2 °F 12.2 °F 86% 30.06 in 1.8 mi ENE 9.2 mph - N/A   Overcast
3:49 AM 14.0 °F 2.0 °F 10.4 °F 86% 30.06 in 3.0 mi East 9.2 mph - N/A   Mostly Cloudy
3:50 AM 14.0 °F 2.0 °F 10.9 °F 88% 30.17 in 4.0 mi East 9.2 mph - N/A   Mostly Cloudy
4:04 AM 12.2 °F 0.7 °F 10.4 °F 92% 30.06 in 8.0 mi ENE 8.1 mph - N/A   Scattered Clouds
4:42 AM 12.2 °F -0.2 °F 10.4 °F 92% 30.06 in 9.0 mi East 9.2 mph - N/A   Mostly Cloudy
4:53 AM 12.9 °F 0.7 °F 10.0 °F 88% 30.17 in 9.0 mi ENE 9.2 mph - N/A   Overcast
5:53 AM 12.9 °F 2.6 °F 10.0 °F 88% 30.18 in 8.0 mi ENE 6.9 mph - N/A   Overcast
6:53 AM 12.9 °F 5.2 °F 10.0 °F 88% 30.17 in 7.0 mi East 4.6 mph - N/A   Overcast
7:53 AM 14.0 °F - 10.4 °F 86% 30.04 in 3.0 mi Calm Calm - N/A   Overcast
8:53 AM 15.1 °F - 10.9 °F 84% 30.16 in 5.0 mi Calm Calm - N/A   Overcast
9:53 AM 16.0 °F - 12.9 °F 88% 30.16 in 4.0 mi Calm Calm - N/A   Overcast
10:53 AM 18.0 °F 12.7 °F 15.1 °F 88% 30.15 in 5.0 mi South 3.5 mph - N/A   Overcast
11:53 AM 21.0 °F 16.2 °F 16.0 °F 81% 30.14 in 8.0 mi ESE 3.5 mph - N/A   Overcast
12:53 PM 21.9 °F - 17.1 °F 82% 30.11 in 9.0 mi Calm Calm - N/A   Overcast
1:10 PM 23.0 °F 18.4 °F 17.6 °F 80% 29.98 in 9.0 mi Variable 3.5 mph - N/A   Mostly Cloudy
1:31 PM 24.8 °F 19.1 °F 17.6 °F 74% 29.97 in 9.0 mi SSE 4.6 mph - N/A   Scattered Clouds
1:53 PM 24.1 °F 19.7 °F 18.0 °F 77% 30.08 in 9.0 mi Variable 3.5 mph - N/A   Clear
2:53 PM 26.1 °F 21.9 °F 19.9 °F 78% 30.06 in 10.0 mi SE 3.5 mph - N/A   Clear
3:53 PM 30.0 °F 26.5 °F 21.0 °F 69% 30.05 in 10.0 mi East 3.5 mph - N/A   Clear
4:53 PM 30.9 °F 25.2 °F 21.9 °F 69% 30.04 in 10.0 mi ENE 5.8 mph - N/A   Clear
5:53 PM 25.0 °F 17.1 °F 18.0 °F 75% 30.05 in 10.0 mi NNE 6.9 mph - N/A   Clear
6:53 PM 21.0 °F 14.6 °F 17.1 °F 85% 30.07 in 10.0 mi NNE 4.6 mph - N/A   Clear
7:53 PM 19.0 °F 11.1 °F 16.0 °F 88% 30.08 in 9.0 mi East 5.8 mph - N/A   Clear
8:53 PM 17.1 °F 10.0 °F 14.0 °F 88% 30.08 in 9.0 mi ESE 4.6 mph - N/A   Clear
9:53 PM 16.0 °F - 12.9 °F 88% 30.09 in 8.0 mi Calm Calm - N/A   Clear
10:13 PM 15.8 °F - 12.2 °F 86% 29.95 in 8.0 mi Calm Calm - N/A   Partly Cloudy
10:31 PM 15.8 °F 10.2 °F 12.2 °F 86% 29.95 in 7.0 mi WNW 3.5 mph - N/A   Mostly Cloudy
10:53 PM 15.1 °F 9.4 °F 12.9 °F 91% 30.09 in 6.0 mi WNW 3.5 mph - N/A   Mostly Cloudy
11:01 PM 15.8 °F 10.2 °F 14.0 °F 93% 29.96 in 5.0 mi NNW 3.5 mph - N/A   Mostly Cloudy
11:53 PM 17.1 °F 8.7 °F 12.9 °F 84% 30.07 in 8.0 mi SSW 5.8 mph - N/A   Overcast